www.pogodaiklimat.ru

ПОГОДА в Муррее, KY

  • Прогноз погоды в Муррее
  • Монитор погоды в Муррее
  • Климат в Муррее

АРХИВ ПОГОДЫ в Муррее

Время (UTC), дата Ветер
(напр.,м/с)
 
Видим.   Явления Облачность Т
(С)
Тd
(С)
f
(%)
Тe
(С)
Тes
(С)
Комфортность

P
(гПа)

Po
(гПа)
Тmin
(С)
Tmax
(С)
R
(мм)
SD
(см)
13:35 24.05 ЮЗ  16 км    ясно  +28.0  +20.0  62  +34  +41  очень
душно 
  1000.1         
13:55 24.05 ЮЗ  16 км    ясно  +29.0  +20.0  58  +35  +41  очень
душно 
  1000.1         
14:15 24.05 ЮЗ  16 км    2/2 1650 м  +29.0  +19.0  55  +34  +42  очень
душно 
  1000.1         
14:35 24.05 ЮЗ  16 км    ясно  +30.0  +19.0  52  +35  +44  очень
душно 
  1000.1         
14:55 24.05 ЮЗ  16 км    ясно  +30.0  +19.0  52  +35  +40  очень
душно 
  1000.1         
15:15 24.05 ЮЗ  16 км    ясно  +30.0  +19.0  52  +35  +42  очень
душно 
  1000.1         
15:35 24.05 Ю  16 км    ясно  +30.0  +18.0  49  +35  +41  очень
душно 
  1000.1         
15:55 24.05 ЮЗ  6
{9} 
16 км    ясно  +30.0  +19.0  52  +35  +41  очень
душно 
  1000.1         
16:15 24.05 ЮЗ  7
{9} 
16 км    ясно  +30.0  +19.0  52  +35  +40  очень
душно 
  1000.1         
16:35 24.05 ЮЗ  6
{8} 
16 км    2/2 1500 м  +30.0  +19.0  52  +35  +40  очень
душно 
  999.7         
16:55 24.05 ЮЗ  5
{7} 
16 км    ясно  +31.0  +18.0  46  +35  +43  очень
душно 
  999.7         
17:15 24.05 З  16 км    ясно  +31.0  +18.0  46  +35  +43  очень
душно 
  999.4         
17:35 24.05 ЮЗ  16 км    ясно  +32.0  +18.0  43  +36  +50  очень
душно 
  999.4         
17:55 24.05 ЮЗ  16 км    ясно  +32.0  +18.0  43  +36  +50  очень
душно 
  999.1         
18:15 24.05 ЮЗ  4
{7} 
16 км    ясно  +32.0  +17.0  41  +36  +45  очень
душно 
  998.7         
18:35 24.05 Ю  16 км    ясно  +32.0  +18.0  43  +36  +49  очень
душно 
  998.7         
18:55 24.05 ЮЗ  16 км    ясно  +32.0  +18.0  43  +36  +47  очень
душно 
  998.4         
19:15 24.05 Ю  16 км    2/2 1800 м  +32.0  +18.0  43  +36  +44  очень
душно 
  998.4         
19:35 24.05 ЮЗ  16 км    2/0 3600 м
[средняя] 
+32.0  +18.0  43  +36  +43  очень
душно 
  998.1         
19:55 24.05 ЮЗ  16 км    ясно  +32.0  +17.0  41  +36  +45  очень
душно 
  997.8         
20:15 24.05 Ю  16 км    ясно  +32.0  +17.0  41  +36  +44  очень
душно 
  997.8         
20:35 24.05 Ю  16 км    ясно  +31.0  +17.0  43  +35  +43  очень
душно 
  997.8         
20:55 24.05 Ю  16 км    8/0 2850 м
[средняя] 
+30.0  +18.0  49  +35  +39  очень
душно 
  997.8         
21:15 24.05 Ю  16 км    5/0 2850 м
[средняя] 
+30.0  +19.0  52  +35  +39  очень
душно 
  997.4         
21:35 24.05 Ю  16 км    2/0 2850 м
[средняя] 
+30.0  +18.0  49  +35  +40  очень
душно 
  997.1         
21:55 24.05 Ю  16 км    8/0 2850 м
[средняя] 
+29.0  +19.0  55  +34  +37  очень
душно 
  997.1         
22:15 24.05 Ю  16 км    8/0 2550 м
[средняя] 
+29.0  +20.0  58  +35  +37  очень
душно 
  996.8         
22:35 24.05 ЮВ  16 км    10/0 2550 м
[средняя] 
+29.0  +19.0  55  +34  +35  очень
душно 
  996.4         
22:55 24.05 ЮВ  16 км    8/0 2550 м
[средняя] 
+28.0  +22.0  70  +36  +37  очень
душно 
  996.4         
23:15 24.05 ЮВ  16 км    5/0 2850 м
[средняя] 
+28.0  +23.0  74  +37  +38  очень
душно 
  996.4         
23:35 24.05 ЮВ  16 км    ясно  +27.0  +23.0  79  +36  +37  очень
душно 
  996.1         
23:55 24.05 ЮВ  16 км    ясно  +26.0  +24.0  89  +36  +37  очень
душно 
  995.8         
00:15 25.05 ЮВ  16 км    ясно  +25.0  +24.0  94  +34  +34  очень
душно 
  995.8         
00:35 25.05 ЮВ  16 км    ясно  +25.0  +24.0  94  +34  +34  очень
душно 
  995.8         
00:55 25.05 ЮВ  16 км    ясно  +25.0  +24.0  94  +34  +34  очень
душно 
  995.8         
01:15 25.05 ЮВ  16 км    ясно  +25.0  +24.0  94  +34  +34  очень
душно 
  995.8         
01:35 25.05 ЮВ  16 км    ясно  +25.0  +24.0  94  +34  +34  очень
душно 
  995.8         
01:55 25.05 Ю  16 км    ясно  +24.0  +24.0  100  +33  +33  очень
душно 
  996.1         
02:15 25.05 ЮВ  16 км    ясно  +24.0  +24.0  100  +33  +33  очень
душно 
  996.1         
02:35 25.05 Ю  16 км    ясно  +24.0  +24.0  100  +33  +33  очень
душно 
  996.4         
02:55 25.05 Ю  16 км    ясно  +24.0  +24.0  100  +33  +33  очень
душно 
  996.8         
03:15 25.05 Ю  16 км    ясно  +23.0  +23.0  100  +32  +32  очень
душно 
  997.1         
03:35 25.05 Ю  16 км    ясно  +24.0  +24.0  100  +33  +33  очень
душно 
  997.4         
03:55 25.05 Ю  16 км    ясно  +23.0  +23.0  100  +32  +32  очень
душно 
  997.8         
04:15 25.05 Ю  16 км    ясно  +23.0  +23.0  100  +32  +32  очень
душно 
  997.8         
04:35 25.05 Ю  16 км    ясно  +23.0  +23.0  100  +32  +32  очень
душно 
  997.8         
04:55 25.05 Ю  16 км    ясно  +23.0  +23.0  100  +32  +32  очень
душно 
  997.8         
05:15 25.05 Ю  16 км    ясно  +23.0  +23.0  100  +32  +32  очень
душно 
  997.4         

 

Местоположение метеостанции Kyle-Oakley Field Airport: широта 36.6646 долгота -88.3728 высота над уровнем моря 176 м.

В архиве по умолчанию представлена погода в Муррее за последние 1-2 суток. Обновление информации о фактической погоде в базе происходит ежечасно! Архивные данные за месяц целиком и за предыдущие месяцы Вы можете получить, выбрав интересующий диапазон дат из раскрывающегося списка и нажав кнопку "Ввод!".

Внимание! Архив погоды МЕТАР в базе сайта хранится не более 60 дней. Нет смысла пытаться выбрать более раннюю дату.

Внимание! Время в таблицах - всемирное. Для получения местного времени необходимо прибавить поправку, которая в Муррее равна -6 ч.

Ветер - указаны скорость ветра в м/с и направление, откуда дует ветер: С - северный, СВ - северо-восточный, В - восточный, ЮВ - юго-восточный, Ю - южный, ЮЗ - юго-западный, З - западный, СЗ - северо-западный.
Видимость - горизонтальная дальность видимости в метрах или километрах. При видимости от 1 до 10 км при отсутствии осадков обычно наблюдается дымка, при ухудшении видимости до 1 км и менее - туман. В сухую погоду видимость может ухудшаться дымом, пылью или мглою.
Атмосферные явления - указаны явления, наблюдавшиеся в указанный момент времени.
Облачность - указаны через наклонную черту верхняя и нижняя облачность в баллах и высота нижней границы облаков в метрах. Внимание: облачность, как и прочие метеорологические величины в США измеряются автоматическими метеостанциями. Указанные значения в баллах носят условный характер и показывают процент времени, в течение которого, в среднем, лазерный луч высотомера отражался от облаков обратно.
T - Температура воздуха - температура, измеренная на высоте 2 м над землей.
Td - Температура точки росы - температура, при понижении до которой содержащийся в воздухе водяной пар достигнет насыщения.
f - Относительная влажность воздуха - влажноcть воздуха, измеренная на высоте 2 м над землей.
Te - Эффективная температура - температура, которую ощущает одетый по сезону человек в тени. Характеристика душности погоды. При расчете учитывается влияние влажности воздуха и скорости ветра на теплоощущения человека.
Tes - Эффективная температура на солнце - температура, которую ощущает человек, с поправкой на солнечный нагрев. Характеристика знойности погоды. Зависит от высоты солнца над горизонтом, облачности и скорости ветра. Ночью, в пасмурную погоду, а также при ветре 12 м/с и более поправка равна нулю.
P - Атмосферное давление - приведенное к уровню моря атмосферное давление.
Po - Атмосферное давление - измеренное на уровне метеостанции атмосферное давление.
Tmin - Минимальная температура - минимум температуры воздуха на высоте 2 м над землей.
Tmax - Максимальная температура - максимум температуры воздуха на высоте 2 м над землей.
R - Количество осадков - Количество выпавших осадков за 3 или 6 часов, мм.
SD - Снежный покров - Высота снежного покрова, см.